Darstellungsparameter: Aktuell verwendete Einstellungen:
Skalierung der Graphiken ... ?
xyx+y,   Skalierungsfaktor:      Skalierung: Modus: x, Faktor: 1
Darstellungszeitraum ... ?
Vom - - bis: - -   Zeitraum: 17.02.2020 - 17.02.2020
Min/Max/Avg-Anzeige ... ?
Zeige MMA aktuell
Zeige MMA Monat
Zeige MMA alles
Zeige --A aktuell
Zeige --A Monat
Zeige --A alles
Keine MMA-Anzeige
MMA:
Keine MMA-Graphiken
MMA-Basis: 17.02.2020 - 17.02.2020
Quicknavigation für Darstellung... ?
Tage:      1T, 2T, 3T, 5T -1T -2T -3T -5T +1T +2T +3T +5T
Wochen: 1W, 2W, 3W -1W -2W -3W +1W +2W +3W
Monate: 1M, 3M, 6M -1M -3M -6M +1M +3M +6M
Jahre:    1J, 3J, 5J, 10J -1J -3J -5J -10J +1J +3J +5J +10J
Nutze für die Darstellung ... ?
Originaldaten oder Mittelwerte auf ...
Stundenbasis Tagesbasis Wochenbasis
Monatsbasis Jahresbasis      Datenbasis: Original-Daten
Darstellen als:
Statistik (Auto) Statistik J:M      Darstellung:
Zur Graphik,    zurück zur Übersicht aller Sensoren.
 
Tabellarische Datenbersicht: ?
 
Sensor: Nr:Datum:Temp:Feuchte:Taupunkt:
Aussen-T/F 1 17-02-2020 00:00:00 10.3 C 86 % 8.06 C
2 17-02-2020 00:05:00 10.2 C 87 % 8.14 C
3 17-02-2020 00:10:00 10.2 C 87 % 8.14 C
4 17-02-2020 00:15:00 10.1 C 88 % 8.21 C
5 17-02-2020 00:20:00 10 C 89 % 8.27 C
6 17-02-2020 00:25:00 9.9 C 89 % 8.17 C
7 17-02-2020 00:30:00 9.8 C 89 % 8.08 C
8 17-02-2020 00:35:00 9.8 C 89 % 8.08 C
9 17-02-2020 00:40:00 9.8 C 89 % 8.08 C
10 17-02-2020 00:45:00 9.8 C 89 % 8.08 C
11 17-02-2020 00:50:00 9.8 C 88 % 7.91 C
12 17-02-2020 00:55:00 9.8 C 88 % 7.91 C
13 17-02-2020 01:00:00 9.7 C 88 % 7.81 C
14 17-02-2020 01:05:00 9.7 C 88 % 7.81 C
15 17-02-2020 01:10:00 9.7 C 88 % 7.81 C
16 17-02-2020 01:15:00 9.6 C 88 % 7.71 C
17 17-02-2020 01:20:00 9.6 C 87 % 7.55 C
18 17-02-2020 01:25:00 9.5 C 87 % 7.45 C
19 17-02-2020 01:30:00 9.5 C 87 % 7.45 C
20 17-02-2020 01:35:00 9.4 C 86 % 7.18 C
21 17-02-2020 01:40:00 9.3 C 86 % 7.08 C
22 17-02-2020 01:45:00 9.3 C 87 % 7.25 C
23 17-02-2020 01:50:00 9.2 C 88 % 7.32 C
24 17-02-2020 01:55:00 9.1 C 89 % 7.39 C
25 17-02-2020 02:00:00 9 C 90 % 7.45 C
Sensor: Nr:Datum:Temp:Feuchte:Taupunkt:
Aussen-T/F 26 17-02-2020 02:05:00 8.9 C 91 % 7.51 C
27 17-02-2020 02:10:00 8.8 C 90 % 7.25 C
28 17-02-2020 02:15:00 8.7 C 89 % 6.99 C
29 17-02-2020 02:20:00 8.6 C 86 % 6.39 C
30 17-02-2020 02:25:00 8.6 C 86 % 6.39 C
31 17-02-2020 02:30:00 8.4 C 86 % 6.2 C
32 17-02-2020 02:35:00 8.3 C 83 % 5.59 C
33 17-02-2020 02:40:00 8.3 C 84 % 5.76 C
34 17-02-2020 02:45:00 8.2 C 83 % 5.49 C
35 17-02-2020 02:50:00 8.2 C 82 % 5.32 C
36 17-02-2020 02:55:00 8.2 C 82 % 5.32 C
37 17-02-2020 03:00:00 8.2 C 82 % 5.32 C
38 17-02-2020 03:05:00 8.3 C 82 % 5.41 C
39 17-02-2020 03:10:00 8.3 C 82 % 5.41 C
40 17-02-2020 03:15:00 8.3 C 82 % 5.41 C
41 17-02-2020 03:20:00 8.3 C 82 % 5.41 C
42 17-02-2020 03:25:00 8.3 C 83 % 5.59 C
43 17-02-2020 03:30:00 8.3 C 83 % 5.59 C
44 17-02-2020 03:35:00 8.3 C 83 % 5.59 C
45 17-02-2020 03:40:00 8.3 C 82 % 5.41 C
46 17-02-2020 03:45:00 8.4 C 82 % 5.51 C
47 17-02-2020 03:50:00 8.4 C 82 % 5.51 C
48 17-02-2020 03:55:00 8.4 C 82 % 5.51 C
49 17-02-2020 04:00:00 8.4 C 82 % 5.51 C
50 17-02-2020 04:05:00 8.4 C 82 % 5.51 C
Sensor: Nr:Datum:Temp:Feuchte:Taupunkt:
Aussen-T/F 51 17-02-2020 04:10:00 8.3 C 82 % 5.41 C
52 17-02-2020 04:15:00 8.3 C 82 % 5.41 C
53 17-02-2020 04:20:00 8.3 C 82 % 5.41 C
54 17-02-2020 04:25:00 8.3 C 82 % 5.41 C
55 17-02-2020 04:30:00 8.3 C 83 % 5.59 C
56 17-02-2020 04:35:00 8.3 C 83 % 5.59 C
57 17-02-2020 04:40:00 8.2 C 83 % 5.49 C
58 17-02-2020 04:45:00 8.2 C 83 % 5.49 C
59 17-02-2020 04:50:00 8.2 C 83 % 5.49 C
60 17-02-2020 04:55:00 8.2 C 84 % 5.66 C
61 17-02-2020 05:00:00 8.1 C 84 % 5.56 C
62 17-02-2020 05:05:00 8.1 C 84 % 5.56 C
63 17-02-2020 05:10:00 8.1 C 84 % 5.56 C
64 17-02-2020 05:15:00 8.1 C 84 % 5.56 C
65 17-02-2020 05:20:00 8.1 C 84 % 5.56 C
66 17-02-2020 05:25:00 8.1 C 84 % 5.56 C
67 17-02-2020 05:30:00 8.1 C 85 % 5.73 C
68 17-02-2020 05:35:00 8 C 85 % 5.64 C
69 17-02-2020 05:40:00 7.9 C 85 % 5.54 C
70 17-02-2020 05:45:00 7.9 C 85 % 5.54 C
71 17-02-2020 05:50:00 8 C 85 % 5.64 C
72 17-02-2020 05:55:00 7.9 C 85 % 5.54 C
73 17-02-2020 06:00:00 7.9 C 86 % 5.71 C
74 17-02-2020 06:05:00 7.9 C 86 % 5.71 C
75 17-02-2020 06:10:00 7.9 C 86 % 5.71 C
Sensor: Nr:Datum:Temp:Feuchte:Taupunkt:
Aussen-T/F 76 17-02-2020 06:15:00 7.9 C 86 % 5.71 C
77 17-02-2020 06:20:00 7.9 C 86 % 5.71 C
78 17-02-2020 06:25:00 8 C 86 % 5.81 C
79 17-02-2020 06:30:00 8.1 C 86 % 5.9 C
80 17-02-2020 06:35:00 8.2 C 85 % 5.83 C
81 17-02-2020 06:40:00 8.2 C 85 % 5.83 C
82 17-02-2020 06:45:00 8.2 C 85 % 5.83 C
83 17-02-2020 06:50:00 8.2 C 85 % 5.83 C
84 17-02-2020 06:55:00 8.2 C 85 % 5.83 C
85 17-02-2020 07:00:00 8.3 C 85 % 5.93 C
86 17-02-2020 07:05:00 8.3 C 85 % 5.93 C
87 17-02-2020 07:10:00 8.3 C 85 % 5.93 C
88 17-02-2020 07:15:00 8.3 C 85 % 5.93 C
89 17-02-2020 07:20:00 8.2 C 85 % 5.83 C
90 17-02-2020 07:25:00 8.2 C 85 % 5.83 C
91 17-02-2020 07:30:00 8.1 C 85 % 5.73 C
92 17-02-2020 07:35:00 8.1 C 86 % 5.9 C
93 17-02-2020 07:40:00 8.1 C 86 % 5.9 C
94 17-02-2020 07:45:00 8.1 C 86 % 5.9 C
95 17-02-2020 07:50:00 8.1 C 86 % 5.9 C
96 17-02-2020 07:55:00 8 C 86 % 5.81 C
97 17-02-2020 08:00:00 7.9 C 86 % 5.71 C
98 17-02-2020 08:05:00 7.9 C 86 % 5.71 C
99 17-02-2020 08:10:00 7.9 C 86 % 5.71 C
100 17-02-2020 08:15:00 8 C 86 % 5.81 C
Sensor: Nr:Datum:Temp:Feuchte:Taupunkt:
Aussen-T/F 101 17-02-2020 08:20:00 8.1 C 86 % 5.9 C
102 17-02-2020 08:25:00 8.1 C 86 % 5.9 C
103 17-02-2020 08:30:00 8.1 C 86 % 5.9 C
104 17-02-2020 08:35:00 8.2 C 86 % 6 C
105 17-02-2020 08:40:00 8.1 C 86 % 5.9 C
106 17-02-2020 08:45:00 8.2 C 85 % 5.83 C
107 17-02-2020 08:50:00 8.3 C 85 % 5.93 C
108 17-02-2020 08:55:00 8.4 C 85 % 6.03 C
109 17-02-2020 09:00:00 8.5 C 85 % 6.13 C
110 17-02-2020 09:05:00 8.6 C 84 % 6.05 C
111 17-02-2020 09:10:00 8.6 C 84 % 6.05 C
112 17-02-2020 09:15:00 8.7 C 83 % 5.98 C
113 17-02-2020 09:20:00 8.7 C 83 % 5.98 C
114 17-02-2020 09:25:00 8.7 C 83 % 5.98 C
115 17-02-2020 09:30:00 8.8 C 83 % 6.08 C
116 17-02-2020 09:35:00 8.8 C 83 % 6.08 C
117 17-02-2020 09:40:00 8.8 C 84 % 6.25 C
118 17-02-2020 09:45:00 8.8 C 84 % 6.25 C
119 17-02-2020 09:50:00 8.7 C 83 % 5.98 C
120 17-02-2020 09:55:00 8.7 C 83 % 5.98 C
121 17-02-2020 10:00:00 8.7 C 83 % 5.98 C
122 17-02-2020 10:05:00 8.7 C 83 % 5.98 C
123 17-02-2020 10:10:00 8.8 C 83 % 6.08 C
124 17-02-2020 10:15:00 8.8 C 82 % 5.9 C
125 17-02-2020 10:20:00 8.8 C 82 % 5.9 C
Sensor: Nr:Datum:Temp:Feuchte:Taupunkt:
Aussen-T/F 126 17-02-2020 10:25:00 8.9 C 83 % 6.17 C
127 17-02-2020 10:30:00 9 C 82 % 6.1 C
128 17-02-2020 10:35:00 9.1 C 83 % 6.37 C
129 17-02-2020 10:40:00 9.1 C 83 % 6.37 C
130 17-02-2020 10:45:00 9.2 C 82 % 6.29 C
131 17-02-2020 10:50:00 9.2 C 82 % 6.29 C
132 17-02-2020 10:55:00 9.3 C 82 % 6.39 C
133 17-02-2020 11:00:00 9.3 C 81 % 6.21 C
134 17-02-2020 11:05:00 9.3 C 80 % 6.03 C
135 17-02-2020 11:10:00 9.3 C 79 % 5.85 C
136 17-02-2020 11:15:00 9.4 C 79 % 5.95 C
137 17-02-2020 11:20:00 9.4 C 80 % 6.13 C
138 17-02-2020 11:25:00 9.4 C 79 % 5.95 C
139 17-02-2020 11:30:00 9.5 C 79 % 6.05 C
140 17-02-2020 11:35:00 9.5 C 78 % 5.86 C
141 17-02-2020 11:40:00 9.6 C 78 % 5.96 C
142 17-02-2020 11:45:00 9.5 C 78 % 5.86 C
143 17-02-2020 11:50:00 9.5 C 78 % 5.86 C
144 17-02-2020 11:55:00 9.5 C 77 % 5.68 C
145 17-02-2020 12:00:00 9.5 C 78 % 5.86 C
146 17-02-2020 12:05:00 9.6 C 77 % 5.77 C
147 17-02-2020 12:10:00 9.6 C 77 % 5.77 C
148 17-02-2020 12:15:00 9.6 C 77 % 5.77 C
149 17-02-2020 12:20:00 9.6 C 76 % 5.58 C
150 17-02-2020 12:25:00 9.5 C 75 % 5.3 C
Sensor: Nr:Datum:Temp:Feuchte:Taupunkt:
Aussen-T/F 151 17-02-2020 12:30:00 9.5 C 75 % 5.3 C
152 17-02-2020 12:35:00 9.5 C 76 % 5.49 C
153 17-02-2020 12:40:00 9.5 C 76 % 5.49 C
154 17-02-2020 12:45:00 9.6 C 75 % 5.39 C
155 17-02-2020 12:50:00 9.6 C 74 % 5.2 C
156 17-02-2020 12:55:00 9.6 C 75 % 5.39 C
157 17-02-2020 13:00:00 9.6 C 74 % 5.2 C
158 17-02-2020 13:05:00 9.7 C 74 % 5.3 C
159 17-02-2020 13:10:00 9.8 C 74 % 5.39 C
160 17-02-2020 13:15:00 9.8 C 73 % 5.2 C
161 17-02-2020 13:20:00 9.8 C 74 % 5.39 C
162 17-02-2020 13:25:00 10 C 74 % 5.59 C
163 17-02-2020 13:30:00 10.2 C 73 % 5.58 C
164 17-02-2020 13:35:00 10.2 C 74 % 5.78 C
165 17-02-2020 13:40:00 10.3 C 74 % 5.88 C
166 17-02-2020 13:45:00 10.3 C 74 % 5.88 C
167 17-02-2020 13:50:00 10.4 C 73 % 5.78 C
168 17-02-2020 13:55:00 10.3 C 73 % 5.68 C
169 17-02-2020 14:00:00 10.3 C 73 % 5.68 C
170 17-02-2020 14:05:00 10.2 C 75 % 5.97 C
171 17-02-2020 14:10:00 10.3 C 74 % 5.88 C
172 17-02-2020 14:15:00 10.3 C 75 % 6.07 C
173 17-02-2020 14:20:00 10.4 C 74 % 5.97 C
174 17-02-2020 14:25:00 10.5 C 74 % 6.07 C
175 17-02-2020 14:30:00 10.6 C 74 % 6.17 C
Sensor: Nr:Datum:Temp:Feuchte:Taupunkt:
Aussen-T/F 176 17-02-2020 14:35:00 10.6 C 73 % 5.97 C
177 17-02-2020 14:40:00 10.6 C 74 % 6.17 C
178 17-02-2020 14:45:00 10.6 C 73 % 5.97 C
179 17-02-2020 14:50:00 10.6 C 74 % 6.17 C
180 17-02-2020 14:55:00 10.5 C 74 % 6.07 C
181 17-02-2020 15:00:00 10.5 C 74 % 6.07 C
182 17-02-2020 15:05:00 10.6 C 74 % 6.17 C
183 17-02-2020 15:10:00 10.6 C 74 % 6.17 C
184 17-02-2020 15:15:00 10.7 C 73 % 6.07 C
185 17-02-2020 15:20:00 10.6 C 74 % 6.17 C
186 17-02-2020 15:25:00 10.7 C 74 % 6.26 C
187 17-02-2020 15:30:00 10.7 C 73 % 6.07 C
188 17-02-2020 15:35:00 10.7 C 74 % 6.26 C
189 17-02-2020 15:40:00 10.8 C 73 % 6.16 C
190 17-02-2020 15:45:00 10.9 C 73 % 6.26 C
191 17-02-2020 15:50:00 10.9 C 72 % 6.06 C
192 17-02-2020 15:55:00 11.1 C 72 % 6.25 C
193 17-02-2020 16:00:00 11.1 C 72 % 6.25 C
194 17-02-2020 16:05:00 11.1 C 71 % 6.05 C
195 17-02-2020 16:10:00 10.9 C 72 % 6.06 C
196 17-02-2020 16:15:00 10.8 C 72 % 5.96 C
197 17-02-2020 16:20:00 10.8 C 73 % 6.16 C
198 17-02-2020 16:25:00 10.8 C 72 % 5.96 C
199 17-02-2020 16:30:00 10.8 C 73 % 6.16 C
200 17-02-2020 16:35:00 10.8 C 73 % 6.16 C
Sensor: Nr:Datum:Temp:Feuchte:Taupunkt:
Aussen-T/F 201 17-02-2020 16:40:00 11 C 73 % 6.35 C
202 17-02-2020 16:45:00 11.2 C 71 % 6.14 C
203 17-02-2020 16:50:00 11.2 C 71 % 6.14 C
204 17-02-2020 16:55:00 11.1 C 70 % 5.84 C
205 17-02-2020 17:00:00 10.9 C 71 % 5.86 C
206 17-02-2020 17:05:00 10.8 C 71 % 5.76 C
207 17-02-2020 17:10:00 10.6 C 71 % 5.57 C
208 17-02-2020 17:15:00 10.6 C 72 % 5.77 C
209 17-02-2020 17:20:00 10.4 C 73 % 5.78 C
210 17-02-2020 17:25:00 10.4 C 73 % 5.78 C
211 17-02-2020 17:30:00 10.1 C 76 % 6.07 C
212 17-02-2020 17:35:00 9.2 C 82 % 6.29 C
213 17-02-2020 17:40:00 8.4 C 82 % 5.51 C
214 17-02-2020 17:45:00 7.9 C 84 % 5.37 C
215 17-02-2020 17:50:00 7.7 C 86 % 5.51 C
216 17-02-2020 17:55:00 7.5 C 86 % 5.31 C
217 17-02-2020 18:00:00 7.4 C 85 % 5.05 C
218 17-02-2020 18:05:00 7.4 C 85 % 5.05 C
219 17-02-2020 18:10:00 7.4 C 85 % 5.05 C
220 17-02-2020 18:15:00 7.4 C 84 % 4.88 C
221 17-02-2020 18:20:00 7.4 C 84 % 4.88 C
222 17-02-2020 18:25:00 7.4 C 84 % 4.88 C
223 17-02-2020 18:30:00 7.3 C 84 % 4.78 C
224 17-02-2020 18:35:00 7.3 C 84 % 4.78 C
225 17-02-2020 18:40:00 7.1 C 84 % 4.58 C
Sensor: Nr:Datum:Temp:Feuchte:Taupunkt:
Aussen-T/F 226 17-02-2020 18:45:00 7.1 C 84 % 4.58 C
227 17-02-2020 18:50:00 7.1 C 84 % 4.58 C
228 17-02-2020 18:55:00 7.2 C 83 % 4.51 C
229 17-02-2020 19:00:00 7.2 C 84 % 4.68 C
230 17-02-2020 19:05:00 7.1 C 83 % 4.41 C
231 17-02-2020 19:10:00 7 C 84 % 4.49 C
232 17-02-2020 19:15:00 6.9 C 84 % 4.39 C
233 17-02-2020 19:20:00 6.8 C 85 % 4.46 C
234 17-02-2020 19:25:00 6.7 C 85 % 4.36 C
235 17-02-2020 19:30:00 6.6 C 86 % 4.43 C
236 17-02-2020 19:35:00 6.5 C 86 % 4.33 C
237 17-02-2020 19:40:00 6.4 C 87 % 4.4 C
238 17-02-2020 19:45:00 6.4 C 87 % 4.4 C
239 17-02-2020 19:50:00 6.5 C 87 % 4.5 C
240 17-02-2020 19:55:00 6.5 C 87 % 4.5 C
241 17-02-2020 20:00:00 6.3 C 87 % 4.3 C
242 17-02-2020 20:05:00 6.2 C 87 % 4.2 C
243 17-02-2020 20:10:00 6 C 87 % 4 C
244 17-02-2020 20:15:00 5.8 C 88 % 3.97 C
245 17-02-2020 20:20:00 5.7 C 88 % 3.87 C
246 17-02-2020 20:25:00 5.5 C 89 % 3.84 C
247 17-02-2020 20:30:00 5.3 C 89 % 3.64 C
248 17-02-2020 20:35:00 5.2 C 90 % 3.7 C
249 17-02-2020 20:40:00 5.1 C 90 % 3.6 C
250 17-02-2020 20:45:00 5.1 C 91 % 3.76 C
Sensor: Nr:Datum:Temp:Feuchte:Taupunkt:
Aussen-T/F 251 17-02-2020 20:50:00 4.9 C 91 % 3.56 C
252 17-02-2020 20:55:00 4.9 C 91 % 3.56 C
253 17-02-2020 21:00:00 4.9 C 92 % 3.71 C
254 17-02-2020 21:05:00 4.9 C 92 % 3.71 C
255 17-02-2020 21:10:00 5.1 C 93 % 4.06 C
256 17-02-2020 21:15:00 5.2 C 93 % 4.16 C
257 17-02-2020 21:20:00 5.3 C 93 % 4.26 C
258 17-02-2020 21:25:00 5.4 C 93 % 4.36 C
259 17-02-2020 21:30:00 5.5 C 94 % 4.61 C
260 17-02-2020 21:35:00 5.6 C 94 % 4.71 C
261 17-02-2020 21:40:00 5.6 C 93 % 4.56 C
262 17-02-2020 21:45:00 5.6 C 93 % 4.56 C
263 17-02-2020 21:50:00 5.6 C 93 % 4.56 C
264 17-02-2020 21:55:00 5.6 C 93 % 4.56 C
265 17-02-2020 22:00:00 5.6 C 93 % 4.56 C
266 17-02-2020 22:05:00 5.7 C 94 % 4.81 C
267 17-02-2020 22:10:00 6 C 94 % 5.11 C
268 17-02-2020 22:15:00 6.2 C 94 % 5.31 C
269 17-02-2020 22:20:00 6.5 C 93 % 5.45 C
270 17-02-2020 22:25:00 6.8 C 92 % 5.59 C
271 17-02-2020 22:30:00 7.1 C 90 % 5.57 C
272 17-02-2020 22:35:00 7.3 C 89 % 5.61 C
273 17-02-2020 22:40:00 7.6 C 88 % 5.74 C
274 17-02-2020 22:45:00 7.7 C 86 % 5.51 C
275 17-02-2020 22:50:00 7.9 C 85 % 5.54 C
Sensor: Nr:Datum:Temp:Feuchte:Taupunkt:
Aussen-T/F 276 17-02-2020 22:55:00 8.1 C 84 % 5.56 C
277 17-02-2020 23:00:00 8.2 C 83 % 5.49 C
278 17-02-2020 23:05:00 8.3 C 83 % 5.59 C
279 17-02-2020 23:10:00 8.3 C 83 % 5.59 C
280 17-02-2020 23:15:00 8.2 C 83 % 5.49 C
281 17-02-2020 23:20:00 8.2 C 84 % 5.66 C
282 17-02-2020 23:25:00 8.1 C 84 % 5.56 C
283 17-02-2020 23:30:00 7.9 C 85 % 5.54 C
284 17-02-2020 23:35:00 7.8 C 85 % 5.44 C
285 17-02-2020 23:40:00 7.8 C 84 % 5.27 C
286 17-02-2020 23:45:00 7.8 C 84 % 5.27 C
287 17-02-2020 23:50:00 7.8 C 83 % 5.1 C
288 17-02-2020 23:55:00 7.8 C 82 % 4.92 C

Legende:
   Min
   Max


Maximal/Minimal-Werte vom 17.02.2020 - 17.02.2020

Sensor Min Max Avg
Temp
(Aussen-T/F)
4.9 °C
17-02-2020  20:50:00
11.2 °C
17-02-2020  16:45:00
8.54 °C
Feuchte
(Aussen-T/F)
70 %
17-02-2020  16:55:00
94 %
17-02-2020  21:30:00
82.66 %
Taupunkt
(Aussen-T/F)
3.56 C
17-02-2020  20:50:00
8.27 C
17-02-2020  00:20:00
5.7 C

Die Daten stammen von einer Davis Vantage Pro 2 Wetter-Station und werden unter Linux mit der Software wview2wettercgi und aufbereitet. Alle Angaben erfolgen ohne Gewähr für ihre Vollständigkeit oder Richtigkeit.
Kontakt: Rainer Krienke krienke@uni-koblenz.de . Meine Webseiten an der Uni Koblenz oder privat.
Version: $Revision: 0.78 $